Home   Weather   Perchtoldsdorf   Past weeks

Flag for Austria Past Weather in Perchtoldsdorf, Lower Austria, Austria — Yesterday and Last 2 Weeks

Now
56 °F

Cool.


Feels Like: 56 °F
Forecast: 50 / 72 °F
Wind: 3 mph from Northwest

Location: Wien / Hohe Warte

Current Time: May 26, 2017 at 5:50:00 am

Latest Report: May 26, 2017 at 5:00 am


Visibility: N/A

Pressure: 30.12 "Hg

Humidity: 67%

Dew Point: 45 °F

Location of PerchtoldsdorfLocation

Past Weather in Perchtoldsdorf — Graph

°F

Perchtoldsdorf Temperature Yesterday

Maximum temperature yesterday: 64 °F (at 7:00 pm)
Minimum temperature yesterday: 53 °F (at 6:00 am)
Average temperature yesterday: 59 °F

High & Low Weather Summary for the Past Weeks

 TemperatureHumidityPressure
High81 °F (May 19, 4:00 pm)94% (May 11, 6:00 am)30.40 "Hg (May 11, 6:00 am)
Low40 °F (May 11, 6:00 am)31% (May 19, 5:00 pm)29.55 "Hg (May 12, 2:00 am)
Average64 °F63%30.03 "Hg
* Reported May 11 4:00 am — May 26 4:00 am, Perchtoldsdorf. Weather by CustomWeather, © 2017

Note: Actual official high and low records may vary slightly from our data, if they occured in-between our weather recording intervals... More about our weather records

Advertising

Perchtoldsdorf Weather History for the Previous 24 Hours

Scroll right to see more
 ConditionsComfort  
Time TempWeatherWind HumidityBarometerVisibility
4:00 am
Fri, May 26
56 °FCool.3 mph66%30.12 "HgN/A
3:00 am52 °FCool.3 mph76%30.14 "HgN/A
2:00 am55 °FPassing clouds.5 mph70%30.14 "Hg22 mi
1:00 am55 °FCool.5 mph68%30.14 "HgN/A
12:00 am56 °FCool.5 mph68%30.15 "HgN/A
11:00 pm
Thu, May 25
56 °FPassing clouds.3 mph66%30.14 "Hg22 mi
10:00 pm58 °FPassing clouds.5 mph62%30.13 "Hg25 mi
9:00 pm59 °FPassing clouds.3 mph59%30.12 "Hg28 mi
8:00 pm62 °FPassing clouds.5 mph55%30.11 "Hg31 mi
7:00 pm64 °FPartly sunny.3 mph52%30.10 "Hg34 mi
6:00 pm62 °FOvercast.5 mph55%30.11 "Hg34 mi
5:00 pm62 °FSprinkles. Overcast.5 mph58%30.12 "Hg37 mi
4:00 pm62 °FOvercast.5 mph56%30.12 "Hg25 mi
3:00 pm62 °FOvercast.5 mph58%30.13 "Hg25 mi
2:00 pm62 °FOvercast.5 mph59%30.13 "Hg25 mi
1:00 pm61 °FOvercast.5 mph60%30.14 "Hg28 mi
12:00 pm61 °FOvercast.6 mph60%30.14 "Hg22 mi
11:00 am60 °FOvercast.7 mph61%30.14 "Hg25 mi
10:00 am57 °FOvercast.7 mph65%30.14 "Hg31 mi
9:00 am58 °FOvercast.8 mph63%30.13 "Hg31 mi
8:00 am54 °FOvercast.8 mph70%30.14 "Hg37 mi
7:00 am53 °FCool.7 mph71%30.13 "HgN/A
6:00 am53 °FCool.7 mph72%30.12 "HgN/A
5:00 am54 °FCool.7 mph71%30.11 "HgN/A
Weather by CustomWeather, © 2017

See weather overviewHow to use our weather pages